Chillicothe, MO

5:50 AM CST on February 07, 2016 (GMT -0600)
Chillicothe

Weather History for KCDJ - July, 2013

Change the Weather History Date:

Thursday, July 11, 2013

  Actual Average (KIRK) Record (KIRK)
Temperature  
Mean Temperature 73 °F 75 °F  
Max Temperature 86 °F 85 °F - ()
Min Temperature 62 °F 65 °F - ()
Degree Days  
Heating Degree Days 0 0  
Month to date heating degree days 0  
Since 1 June heating degree days 16  
Since 1 July heating degree days 0  
Cooling Degree Days 8 10  
Month to date cooling degree days 104  
Year to date cooling degree days 358  
Since 1 June cooling degree days 296  
Growing Degree Days 23 (Base 50)    
Moisture  
Dew Point 57 °F    
Average Humidity 57    
Maximum Humidity 90    
Minimum Humidity 37    
Precipitation  
Precipitation 0.00 in 0.15 in - ()
Month to date precipitation 1.48  
Year to date precipitation 20.41  
Sea Level Pressure  
Sea Level Pressure 30.05 in    
Wind  
Wind Speed 3 mph (East)    
Max Wind Speed 8 mph    
Max Gust Speed -    
T = Trace of Precipitation, MM = Missing Value Source: NWS Daily Summary

Daily Weather History Graph

Daily Weather History Graph

Search for Another Location

Airport or City:

Trip Planner

Search our weather history database for the weather conditions in past years. The results will help you decide how hot, cold, wet, or windy it might be!

Date:

Astronomy

Jul. 11, 2013 Rise Set
Actual Time 5:55 AM CDT 8:43 PM CDT
Civil Twilight 5:23 AM CDT 9:15 PM CDT
Nautical Twilight 4:43 AM CDT 9:55 PM CDT
Astronomical Twilight 3:57 AM CDT 10:41 PM CDT
Moon 9:14 AM CDT (7/11) 10:24 PM CDT (7/11)
Length of Visible Light 15h 51m
Length of Day
14h 47m
Waxing Crescent, 11% of the Moon is Illuminated
Jul 11
Waxing Crescent
Jul 15
First Quarter
Jul 22
Full
Jul 29
Last Quarter
Aug 6
New

Hourly Weather History & Observations

Time (CDT) Temp. Heat Index Dew Point Humidity Pressure Visibility Wind Dir Wind Speed Gust Speed Precip Events Conditions
12:52 AM 72.0 °F - 57.9 °F 61% 30.03 in - NNE 3.5 mph - N/A   Unknown
1:52 AM 66.9 °F - 60.1 °F 79% 30.03 in - Calm Calm - N/A   Unknown
2:52 AM 64.0 °F - 59.0 °F 84% 30.04 in - Calm Calm - N/A   Unknown
3:52 AM 63.0 °F - 59.0 °F 87% 30.05 in - Calm Calm - N/A   Unknown
4:52 AM 62.1 °F - 59.0 °F 90% 30.05 in - Calm Calm - N/A   Unknown
5:52 AM 62.1 °F - 57.9 °F 86% 30.07 in - Calm Calm - N/A   Unknown
6:52 AM 63.0 °F - 59.0 °F 87% 30.08 in - Calm Calm - N/A   Unknown
7:52 AM 70.0 °F - 59.0 °F 68% 30.09 in - NNE 3.5 mph - N/A   Unknown
8:52 AM 73.9 °F - 60.1 °F 62% 30.09 in - ESE 4.6 mph - N/A   Unknown
9:52 AM 77.0 °F - 57.9 °F 52% 30.08 in - ESE 5.8 mph - N/A   Unknown
10:52 AM 80.1 °F 80.4 °F 57.0 °F 45% 30.08 in - East 8.1 mph - N/A   Unknown
11:52 AM 81.0 °F 81.0 °F 57.0 °F 44% 30.07 in - East 3.5 mph - N/A   Unknown
12:52 PM 82.0 °F 81.6 °F 55.9 °F 41% 30.07 in - Variable 5.8 mph - N/A   Unknown
1:52 PM 84.0 °F 83.0 °F 55.9 °F 38% 30.06 in - East 5.8 mph - N/A   Unknown
2:52 PM 84.9 °F 83.9 °F 57.0 °F 38% 30.05 in - East 8.1 mph - N/A   Unknown
3:52 PM 84.9 °F 83.7 °F 55.9 °F 37% 30.03 in - ESE 4.6 mph - N/A   Unknown
4:52 PM 84.9 °F 83.7 °F 55.9 °F 37% 30.03 in - Variable 4.6 mph - N/A   Unknown
5:52 PM 84.9 °F 83.9 °F 57.0 °F 38% 30.02 in - East 5.8 mph - N/A   Unknown
6:52 PM 84.0 °F 83.0 °F 55.9 °F 38% 30.01 in - East 4.6 mph - N/A   Unknown
7:52 PM 82.0 °F 81.4 °F 55.0 °F 39% 30.00 in - East 5.8 mph - N/A   Unknown
8:52 PM 78.1 °F - 55.0 °F 45% 30.00 in - East 3.5 mph - N/A   Unknown
9:52 PM 75.9 °F - 57.0 °F 52% 30.01 in - ESE 3.5 mph - N/A   Unknown
10:52 PM 73.9 °F - 57.0 °F 55% 30.02 in - ESE 5.8 mph - N/A   Unknown
11:52 PM 72.0 °F - 57.9 °F 61% 30.03 in - SE 3.5 mph - N/A   Unknown